[[{"header":{"parameterUnit":"m.s-1","parameterCategory":1,"la1":30.2991,"la2":30.254,"lo1":-89.0895,"lo2":-89.0444,"dy":0.0017,"dx":0.0017,"nx":28,"ny":28,"refTime":"2024-07-18T21:00:00:Z","depth":0,"parameterNumber":2,"parameterNumberName":"U-component_of_WINDS"},"data":[0,0,0,0,0,0,0,0,0,0,0,0,0,0,0,0,0,0,0,0,0,0,0,0,0,0,0,0,0,0,0,0,0,0,0,0,0,0,0,0,0,0,0,0,0,0,0,0,0,0,0,0,0,0,0,0,0,0,-0.2427,-0.2427,0,-0.2437,-0.2437,-0.2437,-0.2399,-0.2397,-0.2396,-0.2395,-0.241,-0.2412,-0.2413,0,0,0,0,0,0,0,0,0,0,0,0,0,-0.238,-0.2382,-0.2427,-0.2427,-0.2427,-0.2437,-0.2437,-0.2437,-0.2399,-0.2397,-0.2396,-0.2395,-0.241,-0.2412,-0.2413,0,0,0,0,0,0,0,0,0,0,0,0,0,-0.2397,-0.2382,-0.2427,-0.2409,-0.2408,-0.2437,-0.2437,-0.2437,-0.2399,-0.2397,-0.2396,-0.2394,-0.2409,-0.2411,-0.2414,-0.2462,0,0,-0.242,-0.2421,0,0,0,0,0,0,0,0,-0.2396,-0.2398,-0.2412,-0.241,-0.2409,-0.2415,-0.2426,-0.2445,-0.24,-0.2403,-0.2395,-0.2393,-0.2414,-0.2415,-0.2421,-0.2462,-0.2463,-0.2421,-0.2422,-0.2423,-0.2423,0,0,0,0,0,0,0,-0.2395,-0.2398,-0.2431,-0.2412,-0.241,-0.2402,-0.2403,-0.2429,-0.2418,-0.2402,-0.2399,-0.2401,-0.2412,-0.2419,-0.2421,-0.2463,-0.242,-0.2422,-0.2424,-0.2425,-0.2545,-0.2547,0,0,0,0,0,0,-0.2395,-0.2397,-0.2431,-0.2431,-0.2398,-0.2405,-0.2405,-0.2415,-0.2417,-0.2416,-0.2402,-0.2399,-0.2416,-0.2419,-0.2421,-0.2478,-0.2423,-0.2425,-0.2426,-0.2543,-0.2545,-0.2548,0,0,0,0,0,0,-0.2394,-0.2399,-0.243,-0.2413,-0.2417,-0.2407,-0.2418,-0.2416,-0.2422,-0.2417,-0.2416,-0.2411,-0.2415,-0.2418,-0.2452,-0.2478,-0.2426,-0.2428,-0.2541,-0.2544,-0.2547,-0.2591,0,0,0,0,0,0,-0.2393,-0.2398,-0.2415,-0.2414,-0.2418,-0.2459,-0.242,-0.2417,-0.2425,-0.2421,-0.2425,-0.2424,-0.2414,-0.2449,-0.2454,-0.248,-0.243,-0.2539,-0.2542,-0.2546,-0.2587,-0.2595,-0.2602,0,0,0,0,0,-0.2392,-0.2429,-0.2416,-0.2421,-0.2439,-0.246,-0.2463,-0.2449,-0.2428,-0.2445,-0.2442,-0.2424,-0.2474,-0.2452,-0.2458,-0.2485,-0.2537,-0.2541,-0.2545,-0.2584,-0.2594,-0.2602,0,0,0,0,0,0,-0.2435,-0.2428,-0.2415,-0.2452,-0.2457,-0.2454,-0.2476,-0.246,-0.2472,-0.2468,-0.2452,-0.2453,-0.2489,-0.2491,-0.2466,-0.2532,-0.2502,-0.2508,-0.253,-0.2539,-0.2546,-0.2545,-0.2431,0,0,0,0,0,-0.2449,-0.2466,-0.2459,-0.2493,-0.2496,-0.2486,-0.2495,-0.2483,-0.2489,-0.2491,-0.249,-0.2498,-0.2515,-0.2527,-0.2543,-0.2587,-0.2588,-0.2609,-0.2616,-0.2622,-0.2628,-0.2652,-0.2661,-0.2561,-0.2561,-0.2561,0,0,-0.2478,-0.2476,-0.2488,-0.2502,-0.2504,-0.2523,-0.2488,-0.2509,-0.2524,-0.2495,-0.2526,-0.2526,-0.2533,-0.2572,-0.2589,-0.2574,-0.2655,-0.2628,-0.2633,-0.2634,-0.2657,-0.2666,-0.2675,-0.2564,-0.2564,-0.2563,0,0,-0.254,-0.254,-0.2568,-0.2571,-0.2575,-0.2568,-0.2575,-0.2574,-0.2572,-0.2603,-0.2581,-0.2599,-0.263,-0.2635,-0.2643,-0.2708,-0.2691,-0.2713,-0.2752,-0.2775,-0.2783,-0.279,-0.2814,-0.2822,-0.2718,-0.2719,-0.2719,0,-0.2576,-0.2603,-0.2585,-0.2608,-0.2615,-0.2588,-0.2617,-0.2622,-0.2631,-0.2638,-0.262,-0.2657,-0.266,-0.2701,-0.2716,-0.2723,-0.2731,-0.2713,-0.2783,-0.279,-0.2796,-0.2818,-0.2827,-0.2721,-0.2721,-0.2721,-0.272,0,-0.2647,-0.2666,-0.2688,-0.2696,-0.2706,-0.2732,-0.272,-0.2732,-0.272,-0.2716,-0.2748,-0.275,-0.2766,-0.2775,-0.2764,-0.2814,-0.2804,-0.2785,-0.2755,-0.2809,-0.2829,-0.2838,-0.2725,-0.2724,-0.2723,-0.2723,0,0,-0.2737,-0.2735,-0.2743,-0.2746,-0.2749,-0.2764,-0.2789,-0.2803,-0.2814,-0.2822,-0.2843,-0.287,-0.2852,-0.286,-0.285,-0.2871,-0.2922,-0.2849,-0.2849,-0.2863,-0.2978,-0.2992,-0.3002,-0.2911,-0.2913,-0.2914,-0.2978,0,-0.2798,-0.284,-0.2825,-0.2868,-0.2885,-0.286,-0.2882,-0.2887,-0.2884,-0.2899,-0.2896,-0.2915,-0.289,-0.2895,-0.2914,-0.2912,-0.2945,-0.2907,-0.2933,-0.2934,-0.2932,-0.3013,-0.3028,-0.3088,-0.2986,-0.2987,-0.2988,0,-0.2875,-0.2884,-0.2928,-0.2927,-0.2934,-0.2954,-0.2966,-0.2981,-0.2986,-0.2982,-0.2991,-0.2976,-0.3003,-0.2972,-0.3009,-0.2984,-0.2994,-0.2994,-0.2996,-0.2998,-0.2964,-0.3018,-0.3106,-0.3115,-0.3,-0.2999,-0.2998,0,-0.2937,-0.296,-0.2989,-0.2993,-0.2993,-0.3007,-0.3008,-0.3012,-0.3021,-0.3032,-0.3038,-0.3053,-0.3061,-0.3073,-0.3064,-0.3042,-0.3103,-0.3071,-0.3101,-0.3101,-0.3115,-0.3114,-0.3207,-0.3121,-0.3121,-0.3121,-0.3121,0,-0.3007,-0.3035,-0.3017,-0.3035,-0.3066,-0.305,-0.3082,-0.308,-0.3083,-0.3102,-0.3082,-0.31,-0.3086,-0.3104,-0.3097,-0.3129,-0.3133,-0.3132,-0.3129,-0.3133,-0.3134,-0.314,-0.3135,-0.3123,-0.3123,-0.3122,-0.3122,0,-0.3081,-0.307,-0.31,-0.3097,-0.3097,-0.312,-0.3118,-0.3135,-0.313,-0.3154,-0.3159,-0.3151,-0.3171,-0.3162,-0.3184,-0.3179,-0.322,-0.3213,-0.3218,-0.3216,-0.3247,-0.3244,-0.3346,-0.3359,-0.3265,-0.3266,-0.3267,0,-0.3126,-0.3147,-0.3145,-0.3155,-0.3157,-0.3174,-0.3183,-0.3168,-0.3178,-0.3186,-0.3203,-0.322,-0.3234,-0.3267,-0.3264,-0.3281,-0.3273,-0.3308,-0.3276,-0.3279,-0.3274,-0.3273,-0.3275,-0.3315,-0.3316,-0.3317,-0.3318,0,-0.3208,-0.3201,-0.3214,-0.3225,-0.3235,-0.3244,-0.3251,-0.3261,-0.3246,-0.326,-0.3278,-0.3289,-0.3309,-0.3328,-0.3342,-0.3345,-0.333,-0.3328,-0.3335,-0.334,-0.3342,-0.3341,-0.3236,-0.3325,-0.3325,-0.3324,-0.3324,-0.3323,-0.3269,-0.3286,-0.3287,-0.3303,-0.3306,-0.3313,-0.3329,-0.3325,-0.334,-0.3354,-0.3345,-0.3368,-0.3374,-0.3391,-0.3396,-0.3414,-0.3401,-0.3412,-0.3415,-0.3418,-0.3422,-0.3339,-0.3417,-0.3417,-0.3417,-0.3417,-0.3416,0,-0.335,-0.3349,-0.3363,-0.3372,-0.3385,-0.3367,-0.3374,-0.3386,-0.3405,-0.3411,-0.3424,-0.3446,-0.3463,-0.3462,-0.3478,-0.3494,-0.3487,-0.3498,-0.3497,-0.3498,-0.3433,-0.3425,-0.3504,-0.3503,-0.3503,-0.3503,-0.3503,-0.3503,-0.3393,-0.3421,-0.3415,-0.3445,-0.3445,-0.3465,-0.3471,-0.3477,-0.3482,-0.3507,-0.352,-0.3519,-0.3522,-0.3539,-0.3554,-0.3554,-0.3561,-0.3575,-0.3572,-0.3512,-0.3503,-0.3495,-0.3487,-0.3577,-0.3577,-0.3636,-0.3636,-0.3637]},{"header":{"parameterUnit":"m.s-1","parameterCategory":1,"la1":30.2991,"la2":30.254,"lo1":-89.0895,"lo2":-89.0444,"dy":0.0017,"dx":0.0017,"nx":28,"ny":28,"refTime":"2024-07-18T21:00:00:Z","depth":0,"parameterNumber":3,"parameterNumberName":"V-component_of_WINDS"},"data":[0,0,0,0,0,0,0,0,0,0,0,0,0,0,0,0,0,0,0,0,0,0,0,0,0,0,0,0,0,0,0,0,0,0,0,0,0,0,0,0,0,0,0,0,0,0,0,0,0,0,0,0,0,0,0,0,0,0,1.6677,1.6677,0,1.6635,1.6635,1.6634,1.6689,1.6691,1.6693,1.6695,1.6643,1.664,1.6636,0,0,0,0,0,0,0,0,0,0,0,0,0,1.6797,1.6794,1.6677,1.6677,1.6676,1.6636,1.6635,1.6634,1.6689,1.6691,1.6694,1.6696,1.6644,1.664,1.6636,0,0,0,0,0,0,0,0,0,0,0,0,0,1.6748,1.6793,1.6677,1.6699,1.67,1.6636,1.6635,1.6634,1.6688,1.6691,1.6694,1.6697,1.6645,1.664,1.6636,1.6545,0,0,1.6621,1.6619,0,0,0,0,0,0,0,0,1.6751,1.6744,1.6696,1.6697,1.6699,1.6671,1.6658,1.6604,1.6687,1.6692,1.6695,1.6698,1.6649,1.6644,1.6629,1.6543,1.6541,1.662,1.6617,1.6615,1.6614,0,0,0,0,0,0,0,1.6754,1.6746,1.666,1.6695,1.6697,1.6708,1.6704,1.6648,1.6654,1.6692,1.6696,1.6691,1.665,1.6634,1.6628,1.654,1.662,1.6616,1.6613,1.6611,1.6378,1.6375,0,0,0,0,0,0,1.6756,1.6749,1.6662,1.6659,1.6733,1.6703,1.6699,1.6676,1.6655,1.6655,1.6688,1.6694,1.6641,1.6634,1.6627,1.652,1.6615,1.6611,1.6608,1.6381,1.6377,1.6374,0,0,0,0,0,0,1.6759,1.6748,1.6663,1.6705,1.6695,1.6698,1.6672,1.6674,1.6658,1.6652,1.6653,1.6671,1.6643,1.6634,1.6566,1.6519,1.6608,1.6604,1.6385,1.638,1.6375,1.6306,0,0,0,0,0,0,1.6762,1.6749,1.6716,1.6704,1.6693,1.6605,1.6669,1.6671,1.665,1.6657,1.6636,1.6635,1.6644,1.6573,1.6561,1.6514,1.66,1.6389,1.6383,1.6377,1.6312,1.6299,1.6288,0,0,0,0,0,1.6766,1.6696,1.6714,1.6703,1.6652,1.6603,1.6596,1.661,1.6646,1.6612,1.6609,1.6636,1.6527,1.6566,1.6553,1.6503,1.6392,1.6384,1.6377,1.6317,1.6301,1.6288,0,0,0,0,0,0,1.6698,1.6694,1.6715,1.6639,1.6621,1.6612,1.6569,1.6593,1.6562,1.6569,1.6586,1.658,1.6508,1.6499,1.6543,1.6415,1.6465,1.6455,1.6424,1.6408,1.6397,1.6399,1.6596,0,0,0,0,0,1.6675,1.6638,1.6635,1.6569,1.6559,1.6566,1.6544,1.6558,1.6539,1.653,1.6522,1.65,1.6461,1.6434,1.6398,1.6312,1.6307,1.6271,1.6259,1.6249,1.6239,1.6193,1.6177,1.6349,1.6349,1.635,0,0,1.6626,1.6619,1.6594,1.6555,1.6543,1.6501,1.6559,1.6512,1.6481,1.6522,1.6459,1.6452,1.6428,1.6351,1.6317,1.6341,1.6191,1.624,1.6232,1.6227,1.6184,1.6168,1.6153,1.6344,1.6345,1.6346,0,0,1.6515,1.6506,1.645,1.6438,1.642,1.6426,1.6412,1.64,1.6398,1.6335,1.6366,1.6328,1.626,1.6242,1.6224,1.6109,1.6132,1.6097,1.6032,1.5987,1.5974,1.5962,1.592,1.5905,1.6087,1.6087,1.6087,0,1.6454,1.6396,1.6418,1.637,1.6352,1.6391,1.6334,1.6319,1.6289,1.6274,1.6303,1.622,1.6207,1.6127,1.6099,1.6083,1.6067,1.6098,1.5974,1.5963,1.5952,1.5912,1.5897,1.6083,1.6083,1.6084,1.6084,0,1.6323,1.6282,1.6238,1.6212,1.6189,1.6136,1.6148,1.6121,1.6137,1.6139,1.6074,1.6061,1.6023,1.6005,1.6018,1.5926,1.5942,1.5972,1.6022,1.5931,1.5894,1.5879,1.6077,1.6078,1.608,1.6081,0,0,1.6165,1.6155,1.6138,1.6127,1.6111,1.6079,1.6028,1.5994,1.5971,1.5949,1.5905,1.5848,1.5877,1.5857,1.5869,1.5829,1.5739,1.5864,1.5864,1.5841,1.5637,1.5614,1.5596,1.5755,1.5753,1.575,1.5639,0,1.6055,1.597,1.5988,1.5903,1.5865,1.5903,1.5859,1.5843,1.5844,1.581,1.5809,1.5769,1.581,1.5798,1.5761,1.5758,1.5698,1.5766,1.5713,1.5711,1.5717,1.5577,1.5552,1.5447,1.5624,1.5622,1.562,0,1.5913,1.589,1.5802,1.5794,1.5779,1.5739,1.571,1.5678,1.5661,1.5664,1.5643,1.5663,1.561,1.5662,1.5589,1.5636,1.5615,1.561,1.5606,1.5601,1.5659,1.5566,1.5414,1.5398,1.5598,1.5599,1.5601,0,1.5807,1.5753,1.5694,1.5684,1.5673,1.5644,1.5637,1.5624,1.5603,1.5577,1.5563,1.553,1.5511,1.5485,1.5495,1.5532,1.5419,1.5472,1.5419,1.5418,1.5392,1.5393,1.5233,1.538,1.538,1.5381,1.5381,0,1.568,1.5625,1.5647,1.561,1.5549,1.5571,1.5509,1.5507,1.5494,1.5457,1.5487,1.545,1.5466,1.543,1.5437,1.5376,1.5367,1.5367,1.5369,1.5363,1.5363,1.5349,1.5356,1.5377,1.5377,1.5378,1.5379,0,1.555,1.5563,1.5501,1.5498,1.5495,1.545,1.5446,1.5411,1.5415,1.5367,1.5357,1.5362,1.5322,1.533,1.5284,1.5289,1.5212,1.5223,1.5218,1.5221,1.5167,1.5171,1.499,1.4968,1.513,1.5129,1.5127,0,1.5468,1.5427,1.542,1.5399,1.5391,1.5356,1.5336,1.5355,1.5333,1.5311,1.5278,1.5241,1.5213,1.5146,1.5144,1.5109,1.5119,1.5059,1.5114,1.511,1.5118,1.512,1.5116,1.5047,1.5045,1.5044,1.5042,0,1.5321,1.533,1.5302,1.5275,1.5252,1.5231,1.5213,1.5193,1.5211,1.5184,1.5145,1.5123,1.5078,1.504,1.5009,1.4999,1.5023,1.5026,1.5011,1.5004,1.5003,1.5003,1.5187,1.5029,1.503,1.5031,1.5032,1.5032,1.5212,1.5178,1.5169,1.5136,1.5125,1.5108,1.5076,1.5078,1.5046,1.5014,1.5027,1.4981,1.4966,1.4926,1.4914,1.4877,1.49,1.4879,1.4874,1.4868,1.4861,1.501,1.4872,1.4872,1.4872,1.4873,1.4873,0,1.5067,1.5063,1.5033,1.5009,1.4983,1.5012,1.4994,1.4969,1.493,1.4915,1.4887,1.4842,1.4807,1.4803,1.4769,1.4741,1.4751,1.4731,1.4732,1.473,1.4843,1.4859,1.4723,1.4723,1.4723,1.4724,1.4724,1.4724,1.4988,1.4932,1.494,1.4878,1.4874,1.4833,1.482,1.4804,1.4793,1.4742,1.4714,1.4713,1.4703,1.4669,1.4637,1.4636,1.4622,1.4598,1.4601,1.4707,1.4722,1.4736,1.4751,1.4595,1.4594,1.4491,1.449,1.4489]}]]